Tracking 17856 objects as of 27-September-2016
HD Live streaming from Space Station
objects crossing your sky now

INTELSAT 2-F4

Track INTELSAT 2-F4 now!
INTELSAT 2-F4 is classified as:


NORAD ID: 2969
Int'l Code: 1967-094A
Perigee: 35,794.5 km
Apogee: 35,945.7 km
Inclination: 4.3 °
Period: 1,440.0 minutes
Semi major axis: 42241 km
RCS: 2.5118 m2 (large)
Launch date: September 28, 1967
Source: International Telecommunications Satellite Organization (ITSO)
Launch site: AIR FORCE EASTERN TEST RANGE (AFETR)
Your satellite tracking list
Your tracking list is empty





NASA's NSSDC Master Catalog

Two Line Element Set (TLE):
1  2969U 67094A   16270.92101944  .00000000  00000-0  10000-3 0  9992
2  2969   4.3314 299.5031 0017891 231.7852 127.8514  1.00234128 81194
Source of the keplerian elements: AFSPC

N2YO: 642